Wind_Speed
42 39 37 37 40 44 45 45 45 45 45 43 41 40 41 41 42 43 44 45 45 45 43 40 38 36 34 32 30 28 27 26 26 26 25 25 26 25 25 26 25 25 23 22 21 21 23 23 23 24 24 26 27 28 29 29 30 31 30 31 31 29 30 32 39 52 59 56 56 60 59 57 60 61 59 59 58 54 52 53 52 51 51 50 48
43 40 38 37 38 42 46 48 47 47 47 46 44 41 40 41 42 43 44 45 46 45 43 41 39 37 34 32 31 29 28 27 26 26 25 26 25 25 25 26 25 24 24 23 22 22 23 24 24 25 26 28 29 29 30 31 31 33 32 31 31 30 29 31 35 44 54 57 56 58 59 57 59 61 59 59 59 56 53 55 54 53 53 51 50
43 42 41 38 37 42 47 49 50 49 48 48 47 43 41 42 43 44 44 45 45 45 43 41 39 37 35 33 31 29 27 27 26 26 26 26 25 25 26 26 25 24 24 23 23 22 24 25 26 26 27 29 31 31 31 32 33 33 33 31 31 31 29 30 33 40 49 55 56 57 59 59 59 59 59 58 59 58 58 58 55 55 54 52 52
45 45 44 41 38 41 46 48 50 51 50 49 49 46 44 44 44 45 44 44 45 44 43 41 39 37 35 33 31 29 28 27 26 26 26 26 26 25 26 25 25 25 24 23 23 23 24 26 27 28 29 31 32 32 32 33 33 34 34 32 31 31 30 30 34 38 44 51 56 56 57 60 61 59 58 59 60 59 59 59 56 56 56 53 53
45 45 46 44 40 39 43 47 50 52 51 50 50 49 48 46 46 46 45 44 45 45 43 42 40 38 35 33 31 29 28 27 26 26 27 26 26 26 25 25 25 25 24 23 23 24 25 27 28 29 31 33 33 33 33 34 34 34 33 32 31 32 32 32 35 37 40 48 55 57 57 59 60 59 56 56 59 59 59 60 58 58 58 56 56
46 45 46 46 42 39 41 45 49 51 52 51 51 51 50 48 47 46 45 44 45 45 44 42 40 38 36 34 32 30 29 27 27 27 27 26 26 26 25 24 24 25 24 23 23 25 26 28 29 30 31 33 34 33 34 34 34 33 32 32 32 33 35 36 37 37 40 47 53 56 58 58 58 59 56 54 57 59 58 60 63 60 57 56 58
46 46 46 46 44 40 39 43 46 48 51 52 51 51 50 49 48 47 45 44 45 45 44 43 40 38 36 34 32 31 29 28 28 27 26 26 26 25 25 24 24 25 24 24 24 26 28 29 30 31 32 32 33 33 34 35 34 33 33 33 35 36 38 40 40 41 43 48 51 55 58 59 58 60 60 55 54 56 52 53 63 64 57 55 59
46 46 45 46 45 40 39 41 44 47 50 52 52 51 50 50 49 47 45 44 44 45 44 42 40 38 36 34 33 31 29 28 28 26 25 25 25 25 24 24 25 24 24 24 25 27 28 30 31 32 32 32 32 33 34 33 33 34 35 35 37 39 41 42 43 43 44 48 52 55 57 58 58 60 61 54 51 53 51 48 56 65 61 60 62
45 45 45 45 44 41 39 41 44 47 49 51 51 51 50 50 48 46 45 43 44 44 44 42 40 38 37 35 33 31 29 28 27 25 24 25 25 24 24 24 24 24 24 25 26 27 29 31 32 31 31 32 32 32 30 28 30 33 35 35 36 38 40 42 43 44 45 48 52 54 55 57 58 60 60 57 53 55 54 49 54 63 62 62 65
44 44 44 44 43 41 41 42 45 47 49 50 51 51 50 49 48 46 45 44 44 44 43 41 40 38 36 34 32 30 28 27 26 25 24 25 24 24 24 24 24 24 25 26 27 28 30 31 31 31 31 32 31 30 27 26 28 30 32 32 33 36 39 42 44 44 45 47 51 53 55 56 58 58 56 55 54 53 52 49 53 60 57 57 65
43 43 43 42 42 42 41 43 45 46 48 50 50 50 50 49 48 46 45 44 44 44 43 42 40 38 36 34 32 30 27 26 25 25 25 24 24 24 24 24 23 24 25 27 28 29 30 30 31 31 31 31 30 28 27 26 27 28 30 31 32 34 37 41 44 45 46 48 51 53 55 56 59 58 53 50 48 49 48 44 46 53 53 53 60
42 42 41 40 41 41 42 43 45 46 47 49 49 50 49 49 48 47 45 44 44 44 44 42 40 38 36 33 31 29 27 26 25 25 24 23 23 24 23 22 23 24 25 27 28 29 29 30 30 31 31 29 28 27 27 27 28 28 29 31 33 33 35 37 41 44 46 49 52 55 58 58 59 59 54 49 47 48 47 44 44 49 52 53 58
41 41 40 40 41 41 42 43 44 45 47 47 48 49 49 48 48 46 45 44 44 45 44 42 40 38 36 33 31 28 27 26 25 24 23 22 22 23 21 21 23 24 25 26 28 28 28 29 30 30 29 27 26 26 28 29 30 31 31 33 35 35 35 36 38 40 43 47 51 55 58 58 59 60 57 52 51 53 52 52 52 52 53 55 60
40 40 40 40 40 41 42 42 43 45 46 46 47 48 48 48 47 46 44 44 45 45 44 42 40 38 35 33 30 28 27 26 25 23 21 22 22 21 21 21 23 23 25 26 27 28 27 28 29 29 27 26 25 26 28 30 32 33 34 36 39 39 38 39 40 41 43 45 51 54 56 56 58 61 60 56 56 59 59 60 60 60 60 61 64
39 39 38 39 39 40 41 41 43 44 45 46 47 47 48 48 47 46 45 44 45 45 44 43 41 38 35 33 30 28 27 25 23 22 21 22 21 21 21 21 22 23 25 26 27 27 27 27 27 26 25 26 26 26 27 29 31 34 36 39 41 42 44 44 43 44 44 45 48 50 52 54 55 58 59 58 58 60 61 62 63 62 63 64 66
37 37 37 37 38 39 40 41 43 44 45 46 47 48 48 48 47 46 45 45 46 46 45 43 41 38 35 32 30 28 26 24 23 22 22 22 21 20 20 21 22 23 25 26 26 26 26 25 24 24 25 26 26 25 25 27 30 34 37 41 44 46 47 46 42 40 39 40 42 45 48 50 51 54 56 55 56 58 58 59 61 59 60 62 65
35 35 36 36 37 38 39 41 42 44 45 46 47 48 48 48 47 46 45 47 48 48 46 44 41 38 35 32 29 27 26 24 22 23 23 22 21 20 20 21 22 23 24 25 25 25 24 23 22 23 24 25 25 25 24 26 30 34 39 43 47 48 49 48 44 40 37 38 40 42 44 46 47 50 52 52 53 53 54 57 59 57 56 58 61
35 35 35 35 36 37 38 40 42 44 45 46 47 48 48 48 47 46 46 47 48 48 46 43 41 38 34 31 28 26 25 23 23 24 24 22 20 19 20 20 22 23 24 24 24 24 23 21 20 21 23 24 24 24 23 26 31 35 39 43 46 48 49 48 47 46 45 44 43 43 44 47 49 52 54 54 54 52 52 56 59 58 57 58 59
33 32 32 32 33 35 37 39 42 44 46 47 47 47 47 47 46 46 46 47 48 48 46 43 41 37 33 30 28 26 25 24 25 25 23 20 19 19 19 20 22 23 23 24 23 22 21 21 20 20 22 23 23 23 23 26 31 34 37 40 43 47 47 45 46 48 49 49 51 52 54 54 52 52 52 52 50 47 46 49 52 54 57 59 60
30 30 32 32 33 35 37 39 42 45 46 47 47 47 46 46 46 46 47 48 49 47 46 44 41 37 33 31 28 26 25 26 26 25 22 19 18 18 19 20 21 22 23 23 21 20 20 20 21 21 22 22 23 24 25 27 29 32 35 38 41 43 43 43 45 46 47 51 54 55 54 51 48 47 47 46 44 42 42 44 47 49 52 56 58
30 31 33 34 34 35 37 39 42 44 46 46 46 46 46 46 45 46 48 50 50 48 46 44 40 37 34 31 27 26 27 27 26 24 21 18 17 18 19 20 21 21 22 21 19 19 20 21 21 22 22 23 23 25 27 27 28 31 34 35 37 37 37 41 45 46 47 49 49 48 49 49 48 47 46 44 42 39 39 42 44 46 48 51 53
30 31 32 33 33 35 38 39 42 44 46 46 46 45 46 46 46 46 48 50 50 49 47 44 40 37 34 30 28 27 28 27 25 22 19 17 17 17 19 20 20 20 20 18 17 18 19 20 21 22 22 22 23 26 27 28 28 30 32 32 33 33 35 39 42 43 44 44 45 46 48 48 48 47 44 42 42 41 40 40 40 42 46 49 51
29 30 32 33 34 36 38 40 43 44 46 46 46 46 47 47 47 48 50 51 52 50 47 44 40 37 34 31 29 29 29 27 24 21 18 17 16 17 18 19 18 17 17 17 16 17 18 19 21 22 22 23 25 26 27 27 28 29 30 31 32 33 35 37 39 40 41 42 43 45 46 45 45 44 42 42 44 45 43 42 41 41 43 47 50
29 31 32 33 35 36 38 41 43 45 46 47 47 47 48 47 48 50 51 53 52 50 47 44 41 37 34 32 31 30 28 26 23 20 18 17 17 17 18 18 16 15 15 15 15 16 17 18 20 21 22 24 25 26 26 26 27 27 28 30 32 33 34 36 37 38 39 41 41 43 44 44 42 41 42 43 46 48 46 43 42 40 41 43 46
29 31 33 34 35 36 38 41 43 45 46 47 48 49 49 48 49 52 53 54 53 51 48 44 40 37 35 33 32 30 28 25 22 19 18 17 17 17 17 16 14 13 13 13 14 14 16 17 19 20 22 24 26 26 27 27 26 27 28 30 32 33 34 35 36 37 38 40 41 42 43 42 40 41 43 44 45 47 46 45 44 42 40 40 42
29 31 33 35 35 37 38 40 43 45 47 48 48 48 48 49 51 54 55 56 53 50 47 44 40 38 35 33 31 29 27 24 21 19 18 18 17 17 16 14 12 11 11 12 12 13 15 17 19 22 23 24 25 26 27 28 28 28 29 30 32 33 33 34 35 36 38 40 41 42 43 43 43 44 45 44 44 45 45 46 47 45 41 38 39
31 32 33 35 37 37 38 39 42 44 47 48 48 49 49 49 52 55 57 57 53 49 46 43 41 38 35 33 31 29 26 24 22 20 19 18 17 16 14 12 10 8 10 11 11 13 15 17 20 21 23 24 25 26 27 28 29 30 31 31 32 32 32 33 33 35 38 40 42 43 43 44 45 47 47 46 47 47 46 45 45 45 42 39 38
32 33 34 36 37 38 37 39 41 43 46 48 49 50 51 52 54 56 58 57 53 50 46 42 40 38 35 33 32 29 27 24 22 21 20 18 17 15 12 10 8 6 8 11 12 14 16 18 19 21 22 24 25 26 27 28 30 31 32 33 33 33 34 34 34 35 38 40 42 44 44 45 46 47 47 48 49 49 47 43 42 42 41 38 37
33 34 35 37 38 39 38 39 41 44 46 48 49 50 51 52 54 55 55 54 51 48 44 41 38 36 34 33 32 29 27 24 22 20 19 17 15 13 10 7 6 6 7 10 12 13 15 17 19 21 22 24 25 27 28 30 31 33 34 34 35 35 35 36 37 38 39 41 43 45 45 45 46 48 49 49 50 50 47 43 41 41 39 37 37
35 36 37 39 40 40 40 41 42 44 46 48 50 51 51 52 53 53 53 50 47 44 41 38 37 36 33 31 27 23 21 22 21 19 17 15 13 10 7 5 5 7 7 9 11 13 15 17 18 20 22 24 26 28 30 32 34 35 35 35 35 36 36 37 38 39 41 42 44 45 45 46 47 49 50 50 51 50 47 43 41 39 38 37 37
38 39 39 40 41 42 42 42 43 45 47 49 51 53 54 54 52 51 50 48 44 41 38 34 31 31 30 29 26 23 21 21 19 18 16 13 11 8 6 4 5 6 6 8 11 13 14 16 17 20 21 23 25 28 30 32 34 35 36 37 36 36 37 38 39 40 42 43 44 45 46 47 48 49 50 50 50 50 48 43 40 38 39 39 38
39 40 41 41 42 43 44 44 45 47 48 50 52 54 56 56 54 50 48 45 42 39 35 31 29 28 27 26 26 24 23 21 18 16 14 12 10 8 6 5 5 4 5 7 9 11 13 15 17 19 21 23 25 27 29 31 33 34 35 37 37 37 37 38 40 41 42 43 45 45 47 49 50 50 49 49 49 49 47 44 41 40 40 40 40
39 40 42 43 44 45 46 47 47 48 49 51 54 56 59 60 58 53 46 41 38 36 33 31 30 29 27 25 23 22 20 19 17 15 13 11 10 8 6 5 3 3 4 6 8 10 12 15 17 19 21 23 25 27 29 30 32 33 33 35 36 37 38 39 40 41 42 43 45 46 48 50 51 50 50 49 48 47 46 44 43 42 40 39 40
40 41 43 44 46 46 47 48 48 48 49 51 54 58 60 60 59 56 50 43 38 34 32 30 28 27 26 25 23 21 20 18 16 15 13 11 9 8 6 5 3 2 3 5 8 10 12 14 16 18 20 22 24 27 29 30 31 32 32 34 35 37 38 40 41 42 44 44 45 47 50 51 51 50 50 50 49 47 46 44 43 43 43 42 42
40 42 44 45 46 47 47 47 48 48 49 51 55 59 60 58 57 56 54 49 44 39 35 32 29 28 27 25 23 21 19 17 16 14 13 11 10 8 7 5 2 2 3 5 7 10 12 14 15 17 20 22 24 26 28 29 30 31 32 33 36 38 39 41 42 43 44 45 46 49 52 53 52 50 50 49 49 48 47 46 44 44 45 44 42
42 43 44 45 46 47 47 47 47 48 49 52 56 57 57 56 55 54 52 50 47 43 39 36 33 30 28 26 23 21 19 17 16 14 13 12 10 9 7 5 3 3 3 4 7 9 11 13 15 17 20 22 23 25 27 29 30 30 30 32 35 38 40 41 42 43 44 45 46 50 53 54 53 51 50 50 49 47 46 46 46 46 44 40 38
44 43 44 45 45 46 47 46 46 47 49 52 54 55 54 53 53 52 50 48 46 43 41 40 37 33 31 28 26 23 21 18 17 15 14 12 11 10 8 6 5 4 2 3 6 8 10 13 15 17 19 21 23 24 26 28 29 30 30 31 34 37 39 41 42 43 44 45 47 51 55 55 54 52 51 50 50 48 47 48 48 47 44 40 39
44 44 44 44 45 46 46 45 45 46 49 51 53 53 52 52 52 52 50 47 45 43 41 40 38 36 34 32 29 26 23 20 18 17 15 13 12 10 8 7 6 3 1 3 5 8 10 12 15 17 19 21 22 24 26 28 29 30 30 32 34 37 39 41 42 43 44 46 49 54 56 56 55 53 51 50 50 49 49 48 48 48 48 45 43
43 44 44 44 44 45 44 44 44 47 50 52 52 52 52 53 53 52 50 47 45 42 41 39 37 35 33 31 28 25 23 21 19 17 16 14 13 11 9 7 5 2 1 3 6 8 10 12 14 16 18 20 22 23 25 27 29 29 30 32 35 37 40 42 44 45 46 48 52 56 59 58 57 55 52 50 49 50 50 49 48 48 49 49 47
44 44 44 44 44 43 43 42 44 48 51 53 53 53 54 55 54 53 50 47 43 40 38 37 35 33 30 27 25 24 22 21 20 18 16 14 12 10 9 7 3 1 1 4 6 8 10 13 15 16 18 20 22 23 24 26 28 29 30 32 34 37 40 42 44 46 47 49 53 58 60 60 58 56 53 51 50 50 49 49 49 48 49 51 49
44 44 44 44 44 43 42 43 45 49 53 54 54 54 56 55 54 52 48 44 40 38 37 35 33 31 29 25 23 22 20 20 19 18 16 14 13 11 9 6 3 0 2 4 6 8 11 13 14 17 19 20 22 23 25 26 27 28 30 32 33 36 39 42 44 47 48 49 53 59 61 60 58 56 55 54 53 51 50 49 48 48 49 51 48
44 44 44 44 44 43 44 45 47 50 53 53 54 55 56 55 53 50 46 43 40 38 36 34 32 30 28 25 24 23 21 20 19 18 16 15 13 11 8 5 2 1 3 5 7 9 11 12 14 17 19 20 22 24 25 27 28 28 29 31 33 35 39 42 45 47 48 49 54 60 61 60 58 56 55 54 53 52 51 50 49 50 52 52 48
44 44 44 44 44 44 45 47 49 51 53 54 54 56 56 54 51 48 44 41 39 37 35 34 32 31 29 28 27 26 23 21 20 19 17 16 13 10 7 4 2 1 4 6 7 9 11 13 14 17 18 20 22 24 25 27 28 28 29 30 31 35 38 42 45 47 48 49 55 60 60 59 58 57 55 55 54 53 52 51 50 52 54 53 48
43 43 43 43 43 43 45 48 50 52 53 53 54 54 54 52 50 47 43 40 38 36 35 34 34 33 32 31 29 26 24 23 22 20 18 15 12 9 7 4 1 2 4 6 8 10 12 13 15 16 18 19 21 22 23 25 27 27 28 29 31 34 37 41 44 46 46 49 55 60 59 58 57 56 56 56 55 54 53 52 51 53 55 54 50
42 42 43 43 43 44 46 48 50 51 52 52 53 53 52 51 49 46 42 39 38 36 35 35 34 33 32 30 29 27 25 24 23 20 17 14 11 9 6 4 1 2 4 6 8 10 12 14 15 17 18 19 20 21 22 24 25 26 26 27 29 33 36 39 43 44 44 48 54 58 57 57 57 57 56 56 55 54 53 52 52 53 55 54 51
41 42 43 44 44 45 47 49 49 50 52 53 53 53 52 50 47 44 41 39 37 37 36 35 34 32 30 28 28 28 27 25 23 19 16 13 11 8 6 3 1 2 3 6 8 10 12 14 16 18 19 20 20 21 22 23 25 26 26 25 27 31 34 37 41 42 43 47 53 55 55 56 56 56 56 56 55 54 53 52 52 54 55 54 52
40 42 43 44 45 46 48 49 50 51 52 53 54 53 51 48 45 42 40 38 37 36 35 34 32 31 30 29 29 28 27 25 22 19 16 13 11 8 6 3 1 1 3 5 7 10 12 14 16 18 19 21 21 22 23 24 25 27 27 26 27 30 33 37 40 41 42 47 51 53 53 55 56 56 56 55 55 55 54 53 53 54 55 54 52
40 42 43 44 46 48 49 50 51 53 54 55 54 52 49 46 43 41 39 37 36 35 34 33 33 32 31 31 30 29 27 24 21 18 15 13 11 8 6 3 1 1 3 5 7 10 12 14 15 17 19 21 22 23 24 25 26 28 28 27 27 29 33 36 38 39 42 46 49 51 53 54 55 55 55 55 55 55 55 54 54 54 55 54 52
40 42 44 45 46 47 49 51 53 55 56 55 53 49 46 43 41 39 38 37 36 35 34 34 34 33 32 32 30 29 26 23 20 17 15 13 10 8 6 3 2 1 3 6 8 10 12 13 15 17 19 20 22 24 25 26 27 28 28 28 28 31 34 36 37 38 41 45 48 51 53 54 55 55 55 55 55 55 54 54 54 54 54 55 53
40 42 43 44 45 46 48 51 53 55 54 53 50 47 44 42 40 39 37 36 36 35 34 34 33 33 32 31 30 27 25 22 19 16 14 12 10 8 5 3 1 2 4 6 8 10 12 13 15 17 18 20 22 23 24 26 27 28 29 29 30 31 34 35 36 38 40 43 47 50 53 55 55 55 55 55 55 55 55 55 55 54 53 54 54
39 40 42 43 45 47 48 50 51 51 51 49 47 44 42 40 38 37 36 35 35 34 33 32 32 31 30 29 27 25 23 20 18 15 13 11 9 7 5 3 1 2 4 6 8 10 12 14 15 17 18 20 22 23 24 25 26 27 29 30 30 31 33 35 36 37 39 42 45 49 53 55 55 55 55 55 54 55 55 56 55 53 52 52 54
Wind_Direction
235 237 237 238 242 242 239 238 238 238 238 239 241 242 242 242 241 240 238 238 237 236 235 234 233 234 235 237 240 243 246 250 254 259 263 268 272 275 279 281 283 285 285 286 290 293 296 299 302 304 302 300 302 303 303 303 301 298 295 292 290 285 280 273 268 279 293 298 298 301 303 303 302 301 301 302 302 300 299 300 301 301 301 301 300
237 237 237 239 245 246 241 238 238 238 238 238 239 240 242 243 241 239 237 237 237 236 234 233 232 233 235 237 239 241 244 248 253 258 263 267 271 276 279 280 281 282 284 287 290 293 296 300 302 304 303 303 304 305 305 304 301 298 297 293 291 288 281 275 270 274 285 295 299 300 301 301 299 300 303 303 303 302 299 299 301 301 301 300 299
239 238 237 239 245 246 242 239 238 238 238 238 238 239 242 243 241 238 236 236 235 235 233 232 232 233 234 235 237 240 244 249 253 259 265 268 273 277 278 279 280 281 284 287 291 294 297 301 304 306 306 306 306 306 305 304 301 299 297 294 291 290 284 274 269 271 279 289 297 299 300 301 299 300 303 302 302 302 299 299 300 300 300 299 297
240 238 238 239 242 245 244 242 240 239 239 240 239 239 240 241 240 237 235 234 234 233 231 230 230 231 233 234 236 240 243 249 254 261 266 270 273 276 277 278 279 280 283 287 291 296 299 303 306 308 307 306 306 307 305 303 302 300 299 297 293 291 287 278 274 276 279 286 294 298 299 299 299 299 301 301 301 302 300 299 299 299 299 297 296
240 240 239 238 240 245 246 244 242 240 240 241 240 239 239 239 238 235 233 233 232 231 229 228 228 230 231 234 236 239 243 248 255 261 265 269 272 274 274 275 277 280 283 288 293 298 302 305 307 308 307 306 305 306 305 304 304 303 301 299 295 292 291 287 284 282 281 284 291 297 297 297 296 297 299 299 299 300 300 300 298 298 298 296 294
241 241 239 238 240 245 247 246 245 243 241 240 240 238 238 237 236 234 232 231 231 229 228 227 228 229 231 233 235 238 242 248 254 259 264 267 270 272 272 274 277 280 284 290 296 301 303 305 307 308 306 305 305 306 307 307 306 304 302 299 297 295 294 294 292 287 282 282 285 289 292 293 292 294 297 297 296 296 297 299 299 297 296 295 295
242 241 240 240 241 246 250 250 248 246 242 239 238 238 237 237 235 233 232 230 230 228 227 226 227 229 230 232 234 237 241 247 253 257 262 266 268 269 271 274 278 281 286 293 299 302 304 306 307 306 304 304 307 309 308 307 306 304 302 301 299 298 296 295 295 290 283 280 281 283 287 290 290 291 295 296 293 291 290 294 297 297 296 295 294
242 242 241 240 242 248 254 252 248 245 241 238 237 237 236 236 235 233 231 230 230 229 227 226 227 227 229 230 232 236 241 246 252 256 260 264 266 268 271 275 278 282 289 295 300 302 305 305 304 303 305 308 310 311 309 307 304 301 298 297 296 295 295 294 292 290 286 283 283 284 287 289 289 290 293 292 288 287 287 287 290 293 294 293 292
242 241 241 241 243 248 251 248 244 241 238 236 236 236 236 235 233 232 230 230 229 228 226 226 227 227 227 229 232 236 241 246 252 256 259 263 265 267 271 274 278 285 291 296 300 303 303 302 302 305 310 312 311 309 304 295 289 288 288 290 291 290 291 290 289 289 288 286 286 286 287 288 288 289 290 288 285 286 288 286 285 289 292 290 289
243 242 243 243 244 246 247 244 241 239 237 236 235 235 234 233 232 231 230 229 228 227 225 224 225 226 227 229 232 236 241 247 252 255 258 260 263 266 270 273 279 287 293 297 300 302 302 303 306 311 312 310 307 303 298 289 283 281 281 284 287 287 287 287 287 286 286 286 286 287 287 287 287 288 287 288 287 286 286 284 283 288 292 288 287
245 244 245 244 242 243 244 242 240 238 237 235 234 234 234 233 232 230 229 228 227 226 225 224 224 224 226 229 232 237 242 247 250 253 255 258 261 265 268 274 284 291 295 299 301 302 304 306 309 311 308 306 305 304 304 299 292 287 284 284 284 283 283 284 286 287 287 287 287 287 286 285 287 288 286 286 287 286 286 284 280 285 290 285 284
246 245 244 242 242 243 244 242 240 238 237 235 234 234 233 232 231 229 228 227 227 225 223 223 223 224 225 228 232 237 242 245 247 250 253 256 261 265 271 280 288 291 294 299 301 303 306 308 307 305 303 305 308 310 309 303 299 297 292 286 283 281 281 282 284 286 287 288 288 287 286 285 286 287 285 285 285 284 283 281 277 280 285 282 281
247 245 243 242 244 245 244 242 240 238 236 235 234 233 232 231 230 229 228 227 226 224 222 222 222 223 225 228 232 237 240 242 245 247 251 255 259 266 274 281 285 289 294 298 301 303 305 304 302 301 304 309 313 315 313 309 307 304 297 292 289 287 284 281 282 283 284 285 285 284 286 286 285 286 285 285 284 283 281 279 277 277 278 278 278
245 244 243 244 244 244 242 240 239 237 235 234 233 232 231 231 230 229 227 226 224 223 221 221 221 223 225 228 232 236 238 240 243 245 249 254 259 265 272 277 282 289 295 298 299 301 301 300 300 303 308 314 319 320 315 311 309 306 301 299 297 295 292 291 290 289 287 286 284 285 288 288 286 287 289 287 284 282 281 279 279 277 276 276 279
244 242 242 243 242 240 239 238 236 235 233 233 232 231 231 230 229 227 226 225 224 222 221 221 221 222 225 228 231 234 236 238 240 244 248 253 257 263 269 276 284 290 294 296 296 298 299 298 301 307 314 320 323 321 313 308 307 304 302 301 301 302 302 301 299 297 294 291 288 286 288 289 288 289 290 289 286 285 283 282 281 280 278 277 277
241 240 240 240 239 238 237 236 235 234 232 232 231 230 230 229 228 226 224 223 221 220 219 219 220 222 224 227 230 231 233 235 239 244 248 251 255 261 269 277 285 289 292 293 294 295 296 299 306 315 319 321 322 321 315 307 303 302 304 306 307 307 305 305 303 298 293 290 288 287 287 288 288 287 287 287 287 286 286 285 282 280 277 274 273
239 238 238 238 238 237 237 236 235 234 232 232 231 230 229 228 226 224 222 220 218 217 217 217 219 221 224 225 227 229 231 236 241 244 247 250 254 262 270 277 284 287 289 290 291 292 296 305 315 318 318 319 322 323 318 308 304 306 309 309 308 307 308 311 310 303 298 296 294 292 290 288 288 287 285 285 284 284 284 282 280 278 275 272 271
237 236 236 237 237 238 238 237 236 235 234 233 232 230 228 227 225 223 221 218 216 215 215 216 217 219 222 223 224 227 232 237 241 243 245 248 254 262 271 277 282 285 286 287 289 293 301 312 318 318 317 320 322 323 319 310 308 310 308 306 306 309 313 317 315 313 312 309 302 296 293 292 292 290 288 287 287 286 282 278 277 276 272 270 270
236 236 236 237 238 239 240 239 238 237 235 234 232 230 228 226 224 221 219 217 215 214 214 215 217 218 219 220 222 226 232 237 239 241 242 247 254 263 271 277 281 282 283 285 289 297 306 313 317 320 320 321 323 325 320 311 308 308 306 305 307 311 316 319 318 316 314 309 303 300 299 299 298 297 295 293 292 290 286 281 279 275 270 268 268
239 238 236 236 238 239 240 239 239 238 236 234 231 229 227 225 222 219 217 214 214 213 213 214 216 217 217 219 221 226 232 235 236 238 240 245 254 263 270 275 278 279 281 285 293 303 310 315 321 322 321 324 328 325 317 311 310 308 307 307 309 314 319 318 314 312 308 304 303 304 305 307 308 307 305 303 300 298 296 293 287 278 271 268 267
240 239 237 237 238 239 239 240 239 238 235 232 230 228 226 225 222 218 215 212 211 211 212 213 213 213 215 217 220 225 230 232 233 235 238 243 251 261 268 272 274 276 280 287 298 308 314 319 321 322 325 329 326 318 316 317 316 311 310 312 314 316 315 312 310 312 310 308 310 311 313 315 315 314 313 311 306 302 299 297 293 285 277 271 268
240 239 239 239 240 239 239 238 237 235 233 231 229 227 225 224 221 218 215 212 210 210 211 211 210 211 212 215 219 223 226 229 231 232 236 241 248 256 264 268 271 275 282 292 302 310 315 318 319 325 331 328 319 316 320 321 318 314 315 317 317 314 311 310 314 318 318 318 318 318 317 317 315 313 311 309 308 304 299 295 293 288 283 276 271
242 241 240 240 240 239 238 237 235 234 232 230 227 226 224 221 218 217 215 212 211 210 210 209 209 209 210 211 215 220 223 227 229 230 233 239 245 253 259 264 268 274 283 294 303 309 314 318 323 329 329 322 318 320 322 321 320 321 322 321 318 316 315 317 322 325 324 323 320 317 316 316 313 309 305 305 310 311 304 294 289 286 284 281 276
247 243 242 241 240 240 239 237 235 233 231 228 225 223 223 220 217 214 213 212 211 211 209 208 208 208 209 210 214 218 221 224 226 227 231 237 242 249 255 259 265 273 282 292 303 310 317 322 326 327 324 322 322 322 321 323 326 327 327 324 321 321 323 326 328 328 325 323 319 316 316 316 312 306 303 304 310 314 311 302 294 288 286 284 281
254 249 245 243 241 241 239 237 235 233 231 228 225 222 221 218 215 213 211 211 211 211 209 208 208 209 209 211 214 218 220 222 223 223 228 235 240 246 250 253 259 269 280 293 305 313 320 324 325 325 325 324 323 321 323 328 331 332 332 329 326 328 332 334 333 328 323 321 319 316 315 315 311 308 307 306 307 309 311 308 303 295 289 288 287
261 255 250 246 243 241 240 237 235 233 231 228 226 224 221 218 215 212 210 209 210 210 209 208 208 208 209 212 214 216 216 218 221 223 226 231 237 242 245 249 256 268 280 293 306 316 323 327 327 327 326 324 322 323 327 331 334 336 337 335 333 335 339 339 335 329 324 321 319 317 316 316 314 313 313 312 308 307 307 306 305 302 295 290 288
267 263 257 251 246 243 242 240 237 234 230 226 223 222 221 219 216 213 211 209 208 208 208 208 207 207 209 211 212 212 213 213 216 220 225 230 234 238 241 246 255 269 284 297 314 326 330 331 329 325 322 320 322 326 329 332 336 340 340 340 339 340 342 342 336 329 325 324 322 320 319 318 318 318 317 315 312 310 309 306 305 306 304 298 292
272 269 263 256 251 247 245 243 241 236 231 227 223 221 219 217 217 216 213 211 208 207 207 208 209 211 213 213 211 208 208 210 214 218 224 229 233 235 240 251 264 282 299 311 325 334 333 329 325 321 319 322 326 330 333 337 341 343 343 343 342 342 345 344 338 332 330 328 325 323 323 322 320 319 318 316 314 313 313 309 305 305 306 304 297
270 268 263 257 253 249 246 245 242 237 232 227 223 221 219 217 216 215 213 213 212 212 212 213 215 217 218 218 215 211 209 209 210 215 221 227 232 236 243 260 282 301 313 319 326 330 329 326 322 322 325 329 333 336 340 343 345 346 345 344 343 344 345 344 339 335 332 330 328 326 325 323 321 320 319 316 316 316 315 311 307 305 305 304 299
267 263 258 254 252 249 246 244 241 236 231 226 221 217 215 215 215 213 211 211 212 213 216 219 222 222 219 216 215 214 213 211 208 210 217 222 227 235 245 263 285 301 314 321 323 325 326 325 325 328 333 336 339 343 346 348 347 346 345 344 345 346 346 343 340 337 334 333 331 329 326 324 321 321 320 318 317 317 315 312 308 306 304 303 300
265 261 256 254 253 250 247 244 240 234 229 224 220 215 210 209 209 210 210 210 210 210 213 216 219 219 214 208 203 200 202 205 205 207 210 213 217 223 228 240 266 290 310 320 322 323 324 326 329 334 338 341 344 348 350 350 347 345 343 343 345 347 346 343 342 339 336 335 333 331 328 325 322 321 320 319 318 317 316 313 309 306 305 306 304
265 262 258 256 255 251 247 244 240 233 226 221 217 213 208 204 201 202 205 207 207 206 204 204 204 204 204 205 204 201 198 198 200 203 203 203 206 209 211 225 253 285 313 321 320 322 326 331 335 338 342 345 349 351 352 350 346 344 342 342 345 348 347 346 344 341 338 336 334 331 328 326 324 323 321 320 318 317 316 314 310 308 308 309 308
267 265 261 257 253 249 245 241 237 231 225 220 215 211 208 204 199 195 195 199 201 200 198 197 197 197 197 200 203 202 199 196 196 197 196 196 198 199 203 215 243 288 315 318 318 322 329 335 339 342 346 349 351 351 352 350 346 343 343 343 345 347 349 349 347 342 339 337 334 331 329 327 326 324 322 321 320 318 316 314 312 310 308 306 306
270 267 263 259 254 250 247 242 236 230 225 221 214 208 205 204 200 194 189 186 187 189 191 192 193 194 196 196 196 197 196 195 192 191 189 190 191 194 202 210 221 281 307 310 315 324 334 338 341 345 349 352 352 351 351 350 346 343 343 344 347 349 350 351 349 344 340 338 334 331 330 329 327 326 324 322 321 319 317 315 313 311 311 310 309
268 264 260 257 253 250 248 243 237 230 224 219 212 205 202 200 198 195 190 186 183 183 184 186 189 193 194 192 191 192 193 191 188 186 185 184 185 189 198 203 210 257 287 304 321 332 338 342 346 349 351 353 353 351 349 348 346 344 344 346 349 352 353 352 349 344 340 337 334 332 331 330 329 327 326 323 321 320 319 317 315 312 312 311 307
264 260 256 254 251 248 245 241 235 229 223 216 209 203 198 196 194 192 189 188 187 187 186 185 186 189 191 190 189 191 192 190 188 185 181 180 182 186 189 188 194 226 263 307 331 337 340 344 349 353 352 352 353 351 349 347 345 344 346 349 351 354 355 352 347 343 339 337 335 333 333 331 330 329 327 325 323 321 319 318 317 314 311 307 302
262 258 255 253 249 244 241 238 232 225 218 211 204 198 195 193 191 188 187 187 189 189 188 187 185 186 187 187 187 189 191 191 188 184 180 179 182 183 183 183 194 214 257 321 335 338 342 348 352 353 352 351 351 350 348 347 345 344 346 350 354 357 356 352 346 342 340 337 335 335 334 333 332 331 329 326 324 323 322 321 320 317 313 309 303
261 258 255 251 247 241 236 232 226 217 210 204 200 196 192 190 189 188 188 189 191 192 191 191 191 191 189 187 187 189 190 190 186 181 178 179 181 181 182 187 196 211 296 337 338 341 348 353 354 353 352 351 351 350 348 347 346 345 347 350 355 358 357 352 347 344 341 338 337 337 336 335 333 333 331 327 326 325 324 323 321 318 316 313 309
259 255 251 247 244 239 233 227 219 210 203 200 197 194 191 190 188 188 190 191 192 193 193 193 194 193 189 188 188 188 187 185 182 179 178 179 181 181 183 189 194 198 344 343 345 350 353 355 355 354 352 351 351 351 349 347 346 346 348 352 356 359 358 353 348 345 343 340 338 338 338 336 335 334 332 329 328 327 325 323 322 320 318 318 318
259 253 247 243 239 235 229 222 214 206 200 198 195 192 191 191 189 189 191 192 191 191 192 192 192 189 187 189 189 186 184 183 180 178 178 178 179 183 186 188 187 161 355 348 350 353 355 356 356 353 352 351 351 352 350 348 346 346 349 353 358 360 359 354 348 345 343 341 339 339 339 337 336 335 333 331 330 329 327 325 324 322 320 321 322
256 249 244 240 235 230 223 217 211 204 199 196 193 191 191 190 190 191 192 191 189 188 189 189 188 186 185 186 186 184 184 183 179 177 177 178 181 186 187 184 177 179 341 347 352 354 356 357 355 353 351 350 350 351 351 349 347 347 349 353 358 1 359 355 350 347 344 341 340 339 339 339 337 336 334 333 333 331 329 327 325 324 324 325 325
251 245 239 234 229 223 217 210 204 200 195 193 192 191 190 190 190 191 190 188 187 187 186 185 184 183 181 182 183 184 184 182 178 177 178 180 184 186 185 182 188 266 334 347 352 355 357 357 356 354 352 349 349 351 351 349 348 348 349 353 358 1 -0 355 351 348 345 341 340 340 340 340 339 337 336 335 335 333 331 329 327 327 329 331 330
245 239 234 228 222 217 211 205 199 195 192 191 190 190 190 190 190 190 189 187 186 185 184 182 181 180 180 182 184 184 182 180 179 179 181 183 185 184 182 185 200 304 337 347 352 354 356 357 357 355 352 349 350 352 351 349 348 347 349 352 357 2 1 356 351 348 345 342 340 341 341 341 340 339 338 338 337 334 333 331 330 332 334 335 334
237 230 223 218 213 208 203 199 195 191 190 189 189 189 190 190 190 188 187 185 184 184 183 182 181 181 182 183 183 182 180 180 181 181 182 183 182 180 180 185 205 323 341 349 353 353 354 355 355 354 353 351 351 352 351 349 347 346 348 352 358 2 2 357 351 348 345 341 340 341 342 342 342 341 340 339 338 336 335 334 333 334 337 339 338
227 220 214 208 203 198 195 193 190 188 187 187 187 188 189 189 188 186 184 183 182 182 182 182 183 184 185 183 180 178 180 181 181 181 181 181 180 180 180 183 210 336 348 352 352 352 354 353 352 352 353 352 351 353 352 349 347 347 348 353 359 3 3 358 353 350 345 341 341 342 343 344 344 343 342 341 340 338 336 335 336 337 340 342 342
217 211 205 200 195 191 189 187 185 185 185 186 187 188 188 186 185 183 181 181 181 181 181 182 184 185 184 181 179 179 181 181 180 180 180 180 180 180 179 183 216 334 351 352 352 354 354 351 349 350 351 351 351 353 353 351 349 347 348 353 1 5 4 0 357 352 346 341 342 344 345 346 346 345 344 343 342 341 339 338 340 342 344 346 346
207 202 197 193 190 187 184 182 182 183 185 186 187 187 185 183 181 180 178 178 180 180 180 182 183 182 182 181 180 180 180 179 178 179 180 180 180 180 182 189 218 340 350 352 354 355 353 350 349 348 349 349 350 351 354 354 351 347 347 353 1 6 6 3 359 353 345 342 344 347 349 348 348 348 347 346 345 344 343 342 343 345 348 349 348
198 193 190 187 185 182 180 180 181 184 185 185 185 184 182 179 177 176 175 176 178 179 179 180 181 181 181 181 180 179 179 178 178 179 180 180 181 181 182 190 204 336 345 349 355 355 352 350 348 346 347 349 349 350 354 356 352 348 348 351 359 6 7 4 359 351 344 343 347 351 352 352 351 350 349 349 348 347 346 345 345 348 351 351 352
189 185 183 181 180 180 180 180 182 183 184 183 182 180 178 175 174 173 173 175 176 178 179 180 181 180 180 179 179 178 178 177 178 179 179 180 181 181 182 190 204 322 343 348 355 355 350 348 347 345 347 349 348 349 353 355 352 349 347 348 355 4 5 1 356 350 345 346 350 354 355 355 355 353 352 352 351 351 350 349 348 349 351 353 356
181 180 178 177 178 178 179 180 181 182 181 180 179 177 174 172 172 172 173 174 176 177 180 181 180 180 179 178 178 177 176 176 178 179 179 180 181 182 185 193 213 325 340 347 354 353 349 347 346 344 345 348 349 349 352 355 353 349 346 346 354 3 4 358 353 350 347 348 353 357 357 357 358 357 356 355 355 354 353 353 352 351 351 353 358
174 175 175 175 175 176 176 177 178 179 178 177 176 174 171 170 170 171 172 174 176 177 178 179 179 178 177 176 176 175 176 177 178 179 179 181 182 184 188 198 242 320 338 348 352 350 346 344 344 343 345 347 348 348 351 354 353 349 346 347 354 2 3 356 350 348 348 351 355 358 359 359 360 359 359 358 358 357 356 356 355 353 352 354 359
Height
1402 1403 1403 1405 1406 1407 1408 1409 1411 1412 1414 1415 1416 1417 1420 1422 1425 1428 1431 1434 1437 1440 1443 1445 1448 1449 1451 1452 1453 1454 1455 1455 1456 1456 1457 1458 1458 1459 1459 1459 1459 1458 1459 1459 1458 1457 1456 1456 1456 1457 1457 1456 1455 1455 1454 1453 1452 1450 1451 1449 1447 1449 1447 1445 1440 1423 1409 1410 1408 1398 1398 1400 1394 1391 1392 1388 1385 1387 1385 1381 1381 1380 1378 1375 1373
1398 1398 1398 1399 1401 1402 1404 1405 1406 1408 1409 1411 1412 1413 1415 1417 1420 1423 1426 1429 1432 1435 1438 1441 1443 1445 1447 1448 1449 1450 1451 1452 1452 1453 1453 1454 1454 1455 1455 1455 1455 1454 1454 1454 1454 1453 1452 1452 1452 1452 1452 1451 1451 1450 1449 1448 1448 1445 1445 1444 1442 1442 1443 1440 1437 1428 1412 1404 1403 1397 1393 1395 1391 1385 1386 1382 1378 1379 1378 1375 1374 1373 1372 1370 1367
1393 1394 1393 1394 1395 1397 1399 1400 1402 1403 1404 1406 1407 1408 1410 1412 1415 1417 1420 1424 1427 1431 1434 1437 1439 1441 1443 1444 1445 1447 1448 1448 1449 1450 1450 1451 1451 1451 1451 1451 1451 1450 1450 1450 1450 1449 1448 1447 1448 1448 1447 1446 1446 1446 1445 1443 1442 1440 1439 1438 1437 1436 1437 1436 1433 1428 1416 1403 1398 1395 1390 1388 1385 1381 1380 1378 1374 1372 1371 1369 1368 1367 1365 1364 1362
1388 1389 1389 1389 1389 1392 1394 1395 1397 1398 1400 1401 1403 1404 1405 1407 1409 1412 1416 1420 1423 1427 1430 1432 1435 1436 1438 1440 1441 1443 1444 1445 1446 1447 1447 1447 1448 1448 1448 1447 1447 1447 1446 1446 1445 1445 1444 1443 1444 1443 1442 1441 1441 1441 1441 1439 1437 1435 1433 1432 1432 1431 1431 1432 1428 1424 1418 1405 1396 1393 1389 1384 1379 1377 1377 1373 1369 1368 1365 1362 1361 1360 1358 1357 1356
1383 1384 1385 1384 1384 1385 1388 1390 1391 1392 1394 1396 1398 1400 1401 1403 1405 1408 1412 1415 1419 1422 1425 1427 1430 1431 1434 1436 1437 1439 1440 1441 1442 1443 1443 1444 1444 1444 1444 1444 1444 1443 1442 1442 1441 1440 1439 1439 1439 1439 1438 1437 1437 1436 1435 1434 1431 1429 1428 1426 1427 1426 1425 1424 1422 1419 1415 1405 1394 1389 1387 1382 1375 1372 1374 1371 1365 1362 1360 1356 1355 1353 1351 1349 1348
1378 1379 1380 1380 1380 1379 1382 1384 1385 1387 1389 1391 1393 1395 1398 1400 1401 1404 1407 1411 1414 1418 1420 1423 1425 1427 1430 1431 1433 1434 1435 1437 1438 1439 1439 1440 1440 1440 1440 1440 1440 1440 1439 1438 1437 1436 1435 1435 1435 1435 1434 1432 1432 1431 1429 1428 1426 1423 1423 1422 1421 1420 1418 1416 1415 1412 1408 1402 1394 1387 1382 1378 1373 1367 1369 1371 1364 1358 1355 1351 1346 1345 1345 1342 1339
1372 1374 1375 1376 1376 1375 1376 1378 1380 1382 1384 1386 1388 1390 1393 1396 1398 1401 1404 1407 1410 1413 1416 1419 1421 1423 1425 1427 1428 1429 1430 1432 1433 1434 1435 1435 1436 1436 1436 1436 1436 1435 1435 1433 1433 1432 1431 1431 1430 1430 1430 1429 1427 1425 1423 1422 1420 1419 1418 1417 1416 1414 1411 1409 1407 1405 1401 1395 1389 1384 1377 1374 1371 1364 1363 1366 1363 1356 1355 1350 1340 1335 1338 1338 1332
1366 1368 1369 1370 1371 1371 1372 1374 1376 1378 1380 1382 1384 1386 1389 1391 1395 1398 1401 1404 1407 1410 1412 1415 1417 1420 1421 1423 1424 1425 1426 1427 1428 1429 1430 1431 1431 1432 1432 1432 1432 1431 1430 1429 1428 1428 1426 1426 1427 1426 1426 1424 1421 1420 1418 1417 1415 1414 1413 1413 1411 1408 1405 1403 1400 1398 1395 1389 1383 1379 1373 1369 1366 1362 1359 1361 1358 1352 1352 1351 1340 1331 1331 1330 1325
1361 1362 1363 1364 1365 1367 1368 1369 1371 1373 1375 1377 1379 1382 1384 1387 1391 1394 1397 1400 1403 1406 1409 1412 1414 1415 1417 1418 1420 1421 1422 1423 1423 1424 1425 1426 1427 1427 1427 1428 1427 1426 1425 1424 1423 1423 1423 1422 1422 1421 1420 1418 1417 1415 1414 1414 1413 1411 1410 1409 1407 1404 1401 1398 1395 1392 1389 1383 1377 1373 1369 1364 1360 1358 1355 1354 1352 1347 1346 1345 1337 1329 1328 1322 1315
1354 1356 1356 1358 1361 1363 1363 1364 1366 1368 1370 1372 1375 1377 1380 1383 1387 1390 1394 1397 1399 1402 1405 1408 1410 1412 1413 1415 1416 1417 1418 1419 1420 1420 1421 1422 1422 1423 1423 1423 1422 1421 1420 1420 1419 1418 1418 1418 1416 1415 1414 1413 1412 1411 1410 1410 1410 1408 1406 1405 1403 1401 1397 1394 1391 1388 1384 1378 1373 1368 1364 1358 1355 1353 1350 1347 1346 1343 1340 1338 1331 1325 1325 1317 1304
1348 1349 1351 1353 1356 1357 1358 1359 1361 1363 1365 1367 1370 1372 1375 1379 1382 1385 1389 1392 1395 1398 1401 1403 1406 1408 1410 1411 1412 1413 1414 1415 1415 1416 1417 1417 1417 1418 1419 1418 1417 1416 1415 1415 1414 1414 1413 1412 1411 1410 1410 1409 1408 1406 1405 1404 1404 1403 1401 1399 1398 1397 1394 1390 1386 1382 1379 1374 1368 1364 1359 1353 1350 1348 1345 1343 1341 1337 1334 1332 1327 1320 1320 1314 1300
1343 1344 1346 1348 1350 1352 1353 1354 1356 1358 1360 1362 1365 1368 1371 1374 1378 1381 1384 1387 1390 1394 1396 1399 1401 1403 1405 1407 1408 1409 1410 1410 1411 1412 1412 1413 1413 1413 1414 1413 1412 1412 1411 1411 1410 1409 1408 1407 1407 1406 1405 1404 1403 1401 1400 1398 1397 1396 1394 1393 1392 1392 1390 1387 1382 1377 1374 1369 1363 1357 1352 1348 1345 1342 1340 1339 1337 1333 1330 1327 1323 1318 1315 1310 1300
1338 1339 1341 1343 1344 1346 1347 1349 1351 1352 1354 1357 1360 1363 1366 1369 1372 1376 1380 1383 1386 1389 1392 1395 1397 1399 1401 1403 1404 1405 1406 1406 1406 1408 1408 1409 1409 1409 1409 1408 1408 1408 1407 1407 1406 1405 1404 1403 1403 1402 1401 1399 1398 1396 1394 1392 1391 1390 1388 1387 1385 1384 1383 1382 1378 1374 1370 1365 1358 1350 1346 1343 1339 1334 1333 1335 1332 1327 1324 1320 1317 1315 1310 1304 1296
1332 1333 1336 1338 1339 1341 1342 1343 1346 1347 1350 1352 1355 1357 1360 1364 1368 1372 1375 1378 1381 1384 1387 1390 1393 1395 1397 1398 1400 1400 1401 1401 1402 1403 1404 1405 1405 1405 1404 1404 1404 1404 1403 1403 1402 1402 1401 1400 1398 1397 1396 1394 1393 1391 1389 1387 1385 1383 1382 1380 1378 1376 1375 1373 1370 1367 1364 1359 1351 1344 1339 1337 1332 1326 1325 1327 1325 1319 1316 1312 1309 1307 1302 1297 1290
1327 1329 1331 1333 1334 1335 1336 1338 1341 1343 1345 1347 1349 1352 1355 1358 1362 1366 1369 1372 1375 1379 1382 1385 1388 1390 1392 1394 1395 1396 1396 1397 1398 1399 1400 1401 1401 1401 1400 1400 1400 1399 1399 1399 1399 1398 1397 1396 1394 1392 1391 1389 1388 1388 1386 1383 1381 1379 1377 1374 1371 1368 1366 1364 1361 1358 1354 1351 1345 1339 1334 1330 1327 1322 1317 1317 1315 1310 1307 1303 1300 1298 1294 1288 1281
1322 1324 1326 1327 1328 1330 1332 1334 1336 1338 1340 1342 1344 1346 1350 1353 1356 1360 1363 1367 1370 1373 1376 1379 1382 1384 1386 1388 1390 1391 1392 1393 1394 1395 1395 1396 1397 1396 1396 1396 1396 1395 1395 1395 1394 1394 1393 1392 1390 1388 1386 1385 1384 1384 1382 1380 1378 1375 1371 1367 1363 1361 1357 1355 1354 1351 1347 1344 1339 1334 1330 1325 1322 1318 1313 1311 1308 1304 1301 1296 1292 1291 1287 1279 1271
1317 1319 1320 1322 1323 1325 1327 1329 1331 1333 1335 1336 1338 1341 1344 1347 1350 1354 1357 1360 1363 1366 1369 1373 1376 1378 1381 1383 1385 1386 1387 1389 1390 1391 1392 1392 1392 1392 1392 1392 1391 1391 1391 1391 1390 1390 1389 1388 1386 1384 1383 1382 1381 1379 1378 1376 1374 1370 1366 1361 1356 1352 1349 1346 1344 1342 1339 1336 1331 1327 1323 1319 1316 1311 1307 1305 1301 1299 1298 1290 1284 1284 1281 1272 1264
1312 1314 1315 1317 1319 1321 1323 1325 1327 1329 1329 1330 1332 1334 1338 1341 1344 1347 1351 1353 1357 1361 1365 1368 1371 1373 1376 1379 1381 1382 1383 1384 1386 1387 1388 1388 1388 1388 1388 1388 1388 1388 1387 1387 1386 1385 1384 1383 1383 1381 1380 1378 1376 1375 1374 1373 1370 1366 1361 1356 1350 1345 1341 1338 1334 1330 1327 1325 1321 1318 1314 1311 1307 1301 1296 1294 1291 1291 1290 1282 1276 1277 1273 1266 1260
1308 1310 1311 1313 1315 1317 1319 1321 1322 1323 1324 1325 1327 1329 1332 1335 1339 1343 1346 1349 1353 1357 1360 1363 1365 1368 1371 1373 1375 1377 1378 1380 1382 1383 1383 1384 1383 1384 1384 1384 1384 1384 1384 1383 1382 1381 1380 1379 1379 1378 1376 1374 1372 1371 1370 1369 1366 1362 1357 1352 1345 1340 1336 1332 1328 1323 1319 1314 1310 1307 1302 1299 1296 1290 1285 1282 1280 1279 1278 1273 1269 1268 1264 1259 1256
1305 1306 1308 1310 1311 1312 1314 1316 1318 1319 1320 1321 1323 1326 1329 1332 1336 1339 1342 1345 1349 1352 1355 1358 1360 1362 1365 1367 1369 1371 1373 1375 1378 1379 1379 1379 1379 1379 1380 1380 1381 1381 1380 1379 1378 1376 1376 1375 1374 1374 1372 1370 1368 1367 1366 1365 1362 1357 1353 1349 1342 1337 1332 1328 1324 1320 1314 1308 1303 1298 1293 1289 1286 1281 1276 1273 1270 1269 1267 1264 1262 1259 1256 1251 1249
1301 1303 1304 1306 1307 1309 1310 1312 1314 1316 1318 1320 1322 1325 1328 1330 1333 1336 1338 1342 1345 1348 1350 1352 1354 1356 1359 1362 1364 1366 1369 1371 1373 1374 1374 1375 1375 1375 1376 1377 1378 1377 1376 1375 1373 1372 1371 1371 1370 1369 1367 1365 1365 1364 1362 1360 1357 1353 1349 1345 1340 1335 1331 1325 1319 1314 1309 1302 1297 1292 1287 1282 1278 1274 1270 1266 1263 1262 1260 1257 1254 1251 1248 1245 1242
1298 1300 1301 1302 1304 1305 1306 1308 1310 1312 1314 1316 1319 1321 1324 1327 1330 1333 1336 1339 1342 1344 1345 1347 1349 1351 1353 1356 1358 1361 1364 1366 1368 1369 1370 1370 1371 1372 1373 1374 1374 1373 1372 1371 1370 1368 1367 1367 1366 1365 1363 1362 1361 1360 1357 1354 1352 1349 1345 1341 1337 1333 1329 1322 1315 1309 1304 1298 1292 1287 1283 1279 1274 1269 1265 1261 1258 1256 1253 1250 1247 1245 1241 1238 1236
1296 1298 1298 1299 1299 1300 1302 1303 1304 1306 1308 1311 1314 1317 1319 1323 1327 1330 1333 1336 1338 1340 1342 1343 1345 1347 1348 1350 1352 1356 1359 1361 1363 1364 1365 1366 1367 1368 1369 1370 1370 1369 1368 1367 1366 1365 1364 1363 1361 1360 1359 1359 1357 1355 1353 1350 1347 1344 1340 1337 1333 1329 1324 1317 1311 1306 1300 1295 1290 1285 1281 1277 1271 1265 1261 1256 1252 1249 1245 1241 1239 1237 1234 1231 1229
1294 1295 1295 1295 1296 1297 1298 1299 1300 1302 1304 1306 1309 1311 1314 1318 1322 1325 1329 1332 1334 1336 1338 1339 1341 1343 1344 1345 1347 1350 1354 1356 1358 1359 1360 1362 1363 1364 1366 1366 1366 1365 1364 1363 1362 1361 1360 1359 1358 1357 1356 1355 1353 1351 1349 1347 1343 1339 1336 1332 1328 1324 1319 1312 1307 1302 1297 1293 1288 1283 1278 1274 1269 1263 1258 1253 1247 1243 1238 1234 1231 1230 1228 1225 1222
1291 1291 1291 1292 1292 1293 1294 1295 1297 1298 1300 1302 1304 1306 1309 1313 1316 1319 1323 1326 1329 1331 1333 1336 1338 1339 1341 1341 1343 1346 1349 1351 1353 1355 1356 1358 1359 1361 1362 1363 1363 1362 1361 1359 1358 1357 1356 1355 1354 1353 1352 1350 1348 1347 1344 1342 1339 1335 1332 1328 1323 1319 1314 1308 1303 1299 1295 1290 1286 1281 1275 1271 1266 1260 1255 1250 1244 1238 1233 1228 1225 1223 1221 1218 1215
1289 1289 1289 1288 1288 1289 1289 1291 1293 1295 1297 1298 1300 1302 1305 1308 1311 1314 1317 1321 1324 1327 1330 1332 1334 1336 1337 1338 1340 1342 1344 1346 1348 1350 1352 1354 1355 1357 1358 1359 1359 1358 1357 1356 1355 1354 1353 1352 1351 1349 1348 1346 1344 1342 1339 1336 1333 1330 1327 1323 1319 1314 1309 1305 1300 1296 1292 1287 1282 1277 1271 1266 1261 1256 1251 1246 1240 1235 1230 1225 1219 1216 1214 1212 1208
1287 1287 1286 1286 1285 1285 1286 1287 1289 1291 1292 1294 1296 1299 1301 1304 1306 1308 1311 1315 1319 1324 1326 1328 1330 1332 1333 1335 1337 1338 1340 1342 1344 1346 1347 1349 1351 1353 1354 1355 1355 1355 1353 1352 1351 1350 1349 1348 1347 1346 1344 1343 1341 1338 1335 1332 1328 1325 1322 1319 1314 1310 1306 1302 1298 1294 1289 1283 1278 1272 1267 1262 1256 1251 1246 1241 1236 1231 1227 1223 1216 1211 1208 1206 1203
1283 1283 1283 1283 1282 1282 1283 1283 1284 1286 1288 1289 1291 1293 1296 1298 1300 1303 1306 1310 1315 1319 1323 1325 1328 1329 1330 1332 1333 1334 1336 1338 1340 1342 1343 1345 1347 1349 1350 1350 1351 1350 1349 1348 1347 1346 1345 1344 1344 1343 1341 1339 1337 1334 1331 1327 1324 1320 1317 1314 1310 1306 1302 1298 1295 1291 1286 1280 1274 1268 1262 1257 1252 1247 1242 1236 1231 1226 1222 1219 1213 1208 1205 1202 1198
1279 1278 1278 1278 1278 1279 1279 1279 1280 1281 1283 1285 1287 1289 1292 1294 1296 1300 1305 1310 1313 1317 1321 1324 1326 1328 1330 1330 1330 1331 1332 1334 1336 1339 1340 1342 1343 1344 1345 1346 1346 1346 1346 1345 1343 1343 1342 1341 1340 1339 1337 1335 1332 1329 1326 1322 1319 1316 1313 1310 1306 1301 1297 1294 1290 1286 1281 1276 1270 1264 1258 1253 1248 1243 1237 1231 1225 1221 1218 1214 1210 1205 1201 1198 1194
1273 1273 1272 1272 1273 1273 1274 1274 1275 1277 1278 1280 1282 1285 1289 1293 1296 1300 1303 1307 1311 1315 1319 1322 1324 1326 1328 1329 1330 1330 1331 1332 1334 1336 1337 1339 1340 1340 1341 1342 1342 1343 1343 1342 1341 1340 1339 1338 1337 1335 1333 1331 1328 1324 1320 1317 1314 1311 1309 1306 1302 1298 1294 1290 1287 1282 1277 1272 1266 1261 1255 1250 1244 1239 1233 1226 1220 1216 1213 1210 1206 1202 1197 1193 1189
1267 1266 1266 1266 1266 1267 1267 1268 1269 1271 1272 1275 1277 1280 1284 1289 1293 1297 1300 1303 1307 1312 1315 1319 1321 1324 1326 1328 1328 1328 1328 1329 1331 1333 1335 1336 1337 1337 1338 1339 1339 1340 1340 1340 1339 1337 1336 1335 1333 1332 1330 1328 1324 1320 1317 1314 1311 1308 1304 1301 1298 1295 1291 1287 1283 1278 1273 1268 1263 1258 1252 1247 1241 1235 1229 1223 1216 1211 1208 1205 1202 1198 1193 1188 1184
1261 1260 1260 1260 1260 1260 1261 1261 1262 1264 1266 1269 1272 1275 1278 1282 1286 1291 1296 1300 1304 1307 1311 1314 1317 1321 1325 1327 1327 1326 1326 1327 1329 1331 1332 1333 1334 1334 1335 1336 1337 1337 1337 1337 1337 1335 1333 1332 1330 1329 1327 1324 1321 1317 1315 1312 1309 1306 1302 1298 1294 1292 1288 1284 1279 1274 1269 1264 1259 1254 1250 1244 1238 1232 1226 1220 1214 1208 1203 1199 1196 1192 1188 1183 1178
1256 1255 1255 1254 1254 1253 1254 1254 1256 1257 1260 1263 1266 1270 1272 1274 1277 1283 1289 1296 1300 1303 1307 1311 1314 1318 1323 1326 1326 1326 1325 1325 1327 1329 1330 1331 1332 1332 1333 1334 1334 1334 1334 1335 1334 1333 1331 1329 1328 1326 1324 1321 1317 1315 1313 1310 1307 1304 1300 1296 1292 1289 1285 1280 1275 1271 1266 1262 1257 1252 1247 1241 1235 1228 1222 1217 1211 1205 1200 1195 1191 1187 1182 1177 1172
1251 1250 1249 1249 1248 1248 1248 1249 1250 1252 1255 1258 1261 1265 1267 1270 1273 1276 1280 1286 1292 1297 1302 1307 1311 1316 1320 1323 1325 1324 1323 1323 1325 1326 1328 1329 1330 1331 1331 1332 1332 1332 1332 1332 1331 1330 1328 1327 1326 1323 1321 1318 1315 1313 1310 1308 1305 1302 1298 1295 1291 1286 1281 1277 1272 1267 1263 1259 1254 1249 1244 1238 1232 1225 1219 1212 1207 1202 1196 1191 1187 1182 1178 1173 1168
1246 1245 1244 1243 1243 1243 1244 1245 1246 1248 1251 1254 1257 1260 1263 1266 1269 1271 1273 1277 1283 1289 1296 1302 1307 1311 1315 1318 1321 1322 1321 1322 1322 1324 1326 1327 1329 1330 1330 1330 1330 1330 1330 1330 1328 1327 1326 1325 1323 1320 1317 1315 1313 1311 1308 1306 1303 1300 1296 1292 1287 1283 1278 1273 1269 1265 1260 1256 1252 1246 1241 1234 1228 1222 1216 1209 1203 1198 1191 1187 1183 1178 1173 1169 1164
1238 1238 1237 1237 1237 1237 1238 1240 1241 1244 1247 1250 1253 1257 1260 1263 1265 1268 1270 1273 1278 1284 1291 1297 1303 1307 1310 1313 1315 1317 1319 1319 1320 1322 1324 1325 1327 1329 1329 1328 1328 1328 1328 1327 1325 1324 1324 1322 1320 1317 1315 1313 1311 1309 1306 1303 1300 1297 1294 1290 1284 1280 1275 1270 1266 1263 1258 1254 1249 1244 1238 1231 1224 1219 1213 1206 1200 1195 1189 1183 1179 1174 1170 1166 1161
1230 1230 1230 1230 1230 1231 1232 1234 1236 1239 1243 1247 1251 1255 1258 1261 1263 1266 1269 1272 1275 1281 1287 1293 1298 1303 1306 1308 1310 1312 1315 1316 1317 1319 1321 1323 1325 1327 1327 1327 1327 1327 1326 1325 1324 1323 1322 1320 1317 1315 1313 1311 1309 1307 1304 1301 1298 1294 1291 1287 1283 1278 1273 1269 1265 1261 1256 1252 1247 1241 1235 1227 1221 1215 1209 1202 1195 1190 1184 1179 1173 1168 1165 1162 1158
1223 1223 1223 1224 1224 1225 1226 1228 1231 1235 1239 1243 1248 1252 1256 1258 1260 1263 1266 1269 1273 1278 1284 1290 1295 1299 1301 1302 1305 1308 1310 1313 1315 1316 1318 1320 1323 1324 1325 1326 1326 1325 1323 1322 1322 1322 1320 1317 1315 1313 1311 1309 1307 1305 1301 1298 1295 1292 1288 1284 1280 1276 1271 1267 1263 1259 1254 1249 1244 1238 1231 1224 1217 1212 1206 1199 1192 1186 1180 1175 1170 1164 1159 1156 1152
1215 1216 1217 1218 1218 1219 1221 1223 1227 1231 1235 1239 1243 1248 1252 1255 1257 1260 1263 1266 1270 1275 1281 1287 1292 1296 1297 1299 1301 1304 1307 1310 1312 1313 1315 1318 1320 1322 1323 1323 1323 1321 1321 1321 1320 1319 1317 1315 1313 1311 1309 1307 1305 1302 1299 1296 1293 1290 1286 1281 1277 1273 1269 1265 1260 1256 1251 1246 1240 1234 1227 1220 1214 1208 1203 1197 1190 1183 1177 1171 1167 1161 1155 1149 1145
1208 1209 1210 1211 1212 1214 1216 1219 1222 1226 1230 1234 1238 1243 1247 1251 1254 1257 1259 1263 1268 1273 1279 1285 1290 1293 1295 1296 1298 1301 1305 1307 1309 1311 1313 1316 1318 1319 1321 1320 1319 1319 1319 1319 1318 1316 1314 1312 1311 1309 1307 1305 1303 1300 1297 1294 1291 1287 1283 1279 1274 1270 1266 1263 1259 1254 1249 1244 1238 1231 1224 1217 1210 1204 1199 1193 1187 1181 1175 1168 1162 1157 1151 1145 1138
1201 1202 1203 1204 1206 1208 1211 1214 1217 1220 1224 1228 1233 1237 1242 1247 1251 1255 1258 1262 1267 1272 1278 1283 1287 1290 1292 1295 1298 1301 1304 1306 1307 1309 1311 1314 1316 1317 1318 1317 1317 1317 1317 1316 1315 1314 1312 1310 1309 1307 1305 1303 1301 1298 1295 1292 1289 1285 1281 1277 1272 1268 1264 1261 1257 1252 1247 1242 1236 1229 1222 1215 1208 1201 1195 1189 1183 1177 1171 1165 1159 1153 1147 1140 1134
1193 1194 1195 1197 1199 1202 1205 1209 1213 1217 1221 1225 1228 1232 1237 1243 1249 1254 1258 1262 1266 1271 1276 1281 1285 1288 1291 1294 1297 1300 1303 1304 1306 1308 1310 1312 1314 1315 1315 1315 1314 1315 1315 1314 1313 1312 1310 1309 1307 1305 1303 1301 1298 1295 1292 1289 1286 1282 1278 1274 1271 1267 1263 1259 1254 1250 1245 1240 1234 1227 1220 1213 1206 1199 1193 1186 1180 1174 1168 1162 1155 1149 1142 1135 1129
1185 1187 1188 1191 1193 1197 1201 1205 1208 1213 1217 1220 1224 1228 1234 1240 1247 1252 1257 1261 1265 1270 1274 1278 1281 1285 1288 1292 1295 1298 1301 1303 1305 1307 1309 1311 1312 1312 1312 1312 1313 1313 1312 1311 1310 1309 1308 1306 1305 1303 1301 1299 1296 1293 1290 1287 1284 1280 1277 1273 1270 1266 1261 1257 1253 1248 1244 1238 1232 1225 1218 1211 1204 1197 1190 1184 1178 1171 1165 1158 1152 1145 1138 1130 1124
1179 1181 1184 1187 1190 1194 1198 1202 1205 1209 1213 1217 1222 1228 1234 1239 1245 1250 1255 1259 1264 1268 1271 1275 1278 1282 1285 1289 1292 1296 1299 1301 1303 1306 1308 1309 1310 1310 1310 1311 1311 1311 1310 1309 1308 1307 1305 1304 1303 1301 1300 1298 1295 1292 1289 1286 1283 1280 1276 1272 1268 1264 1260 1256 1252 1247 1243 1238 1231 1224 1216 1209 1202 1195 1189 1182 1175 1168 1162 1155 1149 1142 1135 1128 1121
1174 1176 1179 1183 1186 1191 1195 1199 1203 1206 1211 1216 1222 1228 1234 1238 1242 1246 1252 1257 1261 1265 1269 1272 1276 1280 1283 1287 1290 1294 1297 1300 1302 1304 1306 1307 1307 1308 1308 1309 1309 1309 1308 1307 1306 1304 1303 1302 1300 1299 1298 1296 1294 1292 1289 1285 1283 1280 1276 1272 1268 1264 1259 1256 1251 1247 1243 1238 1232 1224 1216 1208 1201 1194 1187 1180 1174 1167 1160 1153 1147 1140 1132 1125 1117
1169 1172 1175 1178 1182 1187 1192 1196 1201 1205 1210 1216 1222 1227 1232 1236 1240 1244 1249 1254 1258 1263 1267 1270 1275 1279 1283 1286 1289 1292 1295 1298 1301 1302 1304 1305 1305 1306 1307 1307 1307 1306 1306 1305 1304 1302 1301 1300 1298 1297 1296 1295 1292 1290 1287 1284 1281 1279 1276 1272 1268 1263 1260 1255 1251 1247 1243 1239 1232 1224 1216 1208 1201 1194 1187 1180 1173 1166 1159 1152 1145 1138 1130 1122 1115
1165 1169 1172 1176 1180 1184 1189 1194 1199 1205 1211 1217 1221 1226 1230 1234 1238 1242 1247 1252 1257 1261 1265 1270 1274 1278 1282 1285 1288 1291 1294 1297 1299 1301 1302 1303 1304 1304 1305 1305 1305 1305 1304 1303 1302 1301 1299 1298 1297 1296 1294 1292 1290 1288 1285 1282 1279 1277 1274 1270 1266 1262 1258 1254 1250 1246 1243 1239 1232 1224 1216 1208 1201 1193 1186 1179 1172 1164 1157 1150 1143 1136 1128 1121 1114
1163 1167 1171 1174 1178 1182 1187 1193 1199 1204 1210 1214 1219 1224 1229 1233 1237 1241 1246 1251 1256 1260 1265 1269 1273 1277 1281 1284 1287 1290 1293 1295 1297 1299 1300 1301 1302 1303 1303 1303 1303 1303 1302 1301 1300 1299 1298 1297 1296 1294 1292 1290 1288 1285 1282 1279 1277 1274 1272 1269 1265 1260 1256 1252 1249 1247 1243 1237 1231 1223 1216 1209 1202 1194 1186 1179 1172 1164 1156 1148 1141 1134 1127 1120 1113
1163 1167 1170 1174 1179 1183 1187 1193 1198 1203 1207 1212 1217 1224 1229 1233 1237 1241 1245 1250 1255 1260 1264 1268 1272 1276 1280 1283 1286 1289 1292 1294 1296 1298 1299 1300 1301 1301 1301 1302 1302 1301 1300 1299 1298 1297 1296 1295 1294 1292 1291 1288 1286 1283 1280 1277 1275 1272 1269 1266 1262 1258 1254 1251 1249 1246 1242 1236 1229 1222 1215 1209 1202 1195 1187 1180 1173 1165 1157 1149 1141 1134 1127 1119 1112
1164 1168 1172 1176 1181 1186 1190 1195 1199 1203 1207 1212 1218 1224 1229 1233 1237 1241 1245 1250 1255 1260 1264 1268 1272 1275 1279 1282 1285 1288 1290 1293 1294 1296 1297 1298 1299 1299 1300 1300 1300 1299 1298 1297 1296 1294 1294 1293 1292 1291 1289 1287 1284 1281 1278 1275 1273 1270 1268 1264 1260 1256 1253 1250 1248 1245 1240 1235 1228 1222 1215 1209 1202 1195 1188 1181 1173 1165 1157 1149 1142 1134 1127 1119 1111
1166 1171 1175 1179 1183 1188 1192 1196 1201 1205 1210 1215 1220 1224 1229 1234 1238 1243 1247 1251 1256 1260 1264 1268 1272 1275 1278 1281 1284 1287 1289 1291 1293 1294 1295 1296 1297 1298 1298 1298 1298 1297 1296 1295 1294 1293 1292 1291 1290 1289 1287 1284 1282 1280 1277 1274 1271 1269 1266 1262 1258 1254 1251 1249 1246 1243 1239 1234 1228 1221 1215 1209 1202 1195 1188 1181 1174 1166 1158 1151 1143 1136 1129 1121 1112